ESSA 6 (TOS-D)

Satellite information

Favourite Embed

Satellite Type and Status

PAYLOADIN ORBIT

Key statistics

Satellite ESSA 6 (TOS-D) at a glance.

Uptime

21179

Days in orbit

Revolutions

≈ 12.5

Per day

Orbit

SSO

Sun Synchronous Orbit

Inclination

102.0

Latest

Satellite identification and parameters

Extended collection of information and parameters for ESSA 6 (TOS-D).

Object identification

Identified? True

Debris? False

Object name: ESSA 6 (TOS-D)

International designator: 1967-114A

Object number (NORAD): 3035

Object ID (CCSDS): 3035

Country: UNITED STATES OF AMERICA (US)

Current information (Y/N): Y

RCS size: MEDIUM

Orbital parameters

Period: 114.81 minutes

Inclination: 102.0135 deg

SMA: 7824.922 km

Apoapsis: 1484.994 km

Periapsis: 1408.58 km

RAAN: 44.5353 deg

Eccentricy: 0.0048827

Argument of periapsis: 193.9864 deg

Mean anomaly: 177.2782 deg

Mean motion: 12.54246052 rev/day

Mean motion (dot): -0.00000045 rev/day2

B* drag term: 0.000010822 1/REarth

Two-line elements (TLE)

Creation date: Nov. 3, 2025, 11:16 p.m.

Reference frame: TEME

Reference center: EARTH

Epoch: Nov. 3, 2025, 1:02 p.m. UTC

TLE line 0: 0 ESSA 6 (TOS-D)

TLE line 1: 1 3035U 67114A 25307.54337014 -.00000045 00000-0 10822-4 0 9991

TLE line 2: 2 3035 102.0135 44.5353 0048827 193.9864 177.2782 12.54246052654323

Live tracking on map

Real-time ground track for satellite ESSA 6 (TOS-D).

In-orbit conjunctions

There are no conjunctions computed for ESSA 6 (TOS-D), at the moment. Check back to stay up to date, as we update our databases every day.

Go to all conjunctions

Associated space launch

The ESSA series was the second generation of US meterological satellites after the TIROS (Television & Infra-Red Observation Satellite) series. They were also called OT (Operational TIROS), TOS (TIROS Operational Satellite).

ESSA 6 (TOS-D) was lifted into orbit during the mission ‘Thor Delta E1 | ESSA 6’, on board a Thor Delta E1 space rocket.

The launch took place on Nov. 10, 1967, 5:53 p.m. from Space Launch Complex 2E.

For more information about the launch, click the button.

Launch to space Thor Delta E1 | ESSA 6
Thor Delta E1 | ESSA 6

Agency: N/A

Status: Launch Successful

Launch date: Nov. 10, 1967, 5:53 p.m. UTC

Rocket: Thor Delta E1

Launch pad: Space Launch Complex 2E

Location: Vandenberg SFB, CA, USA

...

Latest news about this satellite

There are no fresh news available about this satellite. Check back as we update our databases every day.


Newsletter sign-up

Weekly statistics, charts and insights to help you stay on top of the space industry.